Race Results‎ > ‎

Queen City Marathon, Sept 11, 2011

posted Oct 30, 2011, 3:58 PM by Gay Renouf
For full results, please go to:

http://www.raceheadquarters.com/results/2011/run/QCMMarathonNet2011.html

I have attempted to list MM members of this and previous years - please send a note if you have been missed.

Quinton Johb, 3:12:13, 5th M30
Laverne Masur, 3:19:58, 2nd M35
Conor Renouf, 3:28:41, 4th M20
Jim Carlson, 3:36:46, 6th M45
Cari Markewich, 3:37:06, 1st W35
Tim Gross, 3:37:55, 5th M50
Kelly Munce, 3:45:31, 9th M45
Jennifer Ruland, 3:45:50, 5th W25
Alan Barry, 3:52:28, 11th M50
Jason Hubick, 3:52:38, 13th M45
Michael Sali, 3:55:59, 10th M25
Denise Harry, 3:57:06, 4th W40
Gerald Fox, 3:58:11, 7th M55
Simon Kostic, 4:01:40, 16th M35
Doug Hynne, 4:02:18, 15th M50
Justin Kline, 4:04:53, 16th M25
Linda Fox, 4:10:27, 2ndW50
Tim Schneider, 4:11:14, 24th M50
Jim Wonnek, 4:14:24, 27th M50
Sage Fox, 4:18:47, 10th W30
Jenn Masur, 4:22:47, 10th W35
Duane Mombourquette, 4:23:04, 31st M50
Dave Fox, 4:23:09, 12th M55
Jason Moryski, 4:28:05, 24th M35
Craig Johnson, 4:28:38, 35th M50
Adriana Moryski, 4:30:32, 12th W35
Bill Brown, 4:31:22, 24th M45
Shari Mombourquette, 4:34:02, 6th W50
Matt Macknak, 4:44:46, 15th M55
Darwin Weimer, 4:47:08, 41st M50
Bob Neufeld, 4:53:36, 46th M50
Kathryn Rachar, 5:04:13, 7th W55
Wade Hagen, 5:25:55, 29th M40
Terry Weimer, 6:13:38, 9th W55

Half-Marathoners
Gareth Dillistone, 1:35:44, 2nd M45
Shawn Wedewer, 1:36:50, 7th M35
Frank Gelinas, 1:44:15, 19th M35
Darryl Mailander, 1:44:38, 9th M45
Teresa Donley, 1:45:40, 4th W50
Tandi van Tol, 1:46:43, 7th W35
Pat Parrott, 2:02:51, 30th M40
John Mykytchuk, 2:04:58, 10th M60
Terry Allan, 2:10:08, 35th M45
Debbie Bellamy, 2:10:34, 26th W50
Erinn-Jane Brawn, 2:11:52, 64th W35
Diane Yachina, 2:21:10, 59th W40
Mark Rathwell, 2:24:05, 75th M35
Sara Thibeault, 2:35:51, 69th W20
Sonja Doyle, 3:02:17, 88th W45
Comments